Location: Houston
(29.7631°N, 95.3631°W)
Time: 07:29:28
(UTC-05:00)

NOAA 19 - Visible Passes

Search period start: 21 September 2021 00:00
Search period end: 01 October 2021 00:00
Orbit: 841 x 860 km, 99.2° (Epoch: 21 September)

Date Brightness Start Highest point End Pass type
(mag) Time Alt. Az. Time Alt. Az. Time Alt. Az.
21 Sep 5.3 19:46:13 10° SSE 19:51:39 62° ENE 19:57:08 10° N visible
21 Sep 8.1 21:30:19 10° WSW 21:32:35 12° W 21:34:51 10° WNW visible
22 Sep 5.5 19:34:39 10° SE 19:39:56 47° ENE 19:45:13 10° N visible
22 Sep 7.9 21:17:12 10° SW 21:20:42 17° W 21:24:13 10° NW visible
23 Sep 7.5 21:04:34 10° SSW 21:08:49 23° W 21:13:07 10° NW visible
24 Sep 7.1 20:52:11 10° SSW 20:56:59 30° W 21:01:47 10° NW visible
25 Sep 6.6 20:40:01 10° SSW 20:45:08 39° W 20:50:19 10° NNW visible
26 Sep 6.1 20:27:56 10° S 20:33:20 52° W 20:38:44 10° NNW visible
27 Sep 5.6 20:16:01 10° S 20:21:32 69° WSW 20:27:03 10° NNW visible
28 Sep 5.2 20:04:12 10° SSE 20:09:45 89° W 20:15:19 10° NNW visible
29 Sep 5.2 19:52:28 10° SSE 19:57:59 70° ENE 20:03:30 10° N visible
29 Sep 8.2 21:37:41 10° WSW 21:38:58 11° W 21:40:15 10° W visible
30 Sep 5.4 19:40:52 10° SSE 19:46:14 53° ENE 19:51:37 10° N visible
30 Sep 8.0 21:24:00 10° SW 21:27:04 15° W 21:30:09 10° WNW visible
